Location: Ore
(50.8667°N, 0.6167°E)
Time: 15:48:12
(UTC+00:00)

Daily predictions for brighter satellites

Satellite Brightness Start Highest point End
(mag) Time Altitude Azimuth Time Altitude Azimuth Time Altitude Azimuth
Cosmos 1707 Rocket 4.1 20:55:57 10° SSW 21:00:20 63° WNW 21:04:44 10° N
MOS 1 Rocket 3.6 20:56:02 10° SSE 21:01:18 74° ENE 21:06:21 10° N
Cosmos 2360 Rocket 4.1 20:57:30 10° NW 21:02:03 25° WSW 21:06:35 10° SSW
Cosmos 1953 2.2 21:01:02 10° N 21:04:52 80° ENE 21:08:40 10° SSE
COSMOS 2428 2.8 21:00:55 10° NNW 21:06:38 81° WSW 21:12:22 10° SSE
USA 234 4.2 21:01:54 10° ENE 21:07:06 25° SE 21:12:16 10° S
SPOT 5 3.8 21:07:19 10° S 21:11:29 42° W 21:15:53 10° NNW
Cosmos 1733 Rocket 4.5 21:07:40 10° NNW 21:11:45 37° W 21:15:50 10° SSW
BREEZE-M DEB (TANK) 2.7 21:13:19 10° WSW 21:15:44 67° SSE 21:20:57 10° E
USA 281 4.5 21:11:22 10° ESE 21:17:01 32° NE 21:22:42 10° NNW
BlueWalker 3 2.0 21:18:07 10° WSW 21:21:53 77° NNW 21:25:38 10° ENE
ERS-1 Rocket 3.7 21:22:53 10° S 21:27:46 51° W 21:32:40 10° NNW
Cosmos 1315 Rocket 3.3 21:24:18 10° SSW 21:28:15 63° WNW 21:32:14 10° N
NOSS 8 (E) 4.3 21:24:36 10° SW 21:28:26 83° SE 21:31:32 10° NE
SL-4 R/B 3.4 21:26:09 10° W 21:29:14 23° SW 21:32:19 11° SSE
SL-08 R/B 4.5 21:27:17 10° S 21:33:22 83° E 21:39:31 10° N
Cosmos 2084 Rocket 3.7 21:30:02 10° SSW 21:34:07 44° SE 21:38:05 10° NE
Cosmos 773 Rocket 4.1 21:29:02 10° NNW 21:34:13 74° ENE 21:39:00 12° SSE
Cosmos 1908 Rocket 4.0 21:30:40 10° NNW 21:34:56 61° W 21:39:11 10° S
Cosmos 1408 2.9 21:32:50 13° SSE 21:35:08 34° E 21:37:54 10° NNE
BREEZE-M DEB (TANK) 4.1 21:33:57 10° WSW 21:38:24 79° SSE 21:57:27 10° E
Cosmos 1782 Rocket 3.5 21:34:44 10° N 21:39:06 81° E 21:43:07 12° SSE
Cosmos 2242 Rocket 4.3 21:35:52 11° SSE 21:39:51 40° E 21:44:07 10° NNE
BREEZE-M DEB (TANK) 4.0 21:38:49 10° WSW 21:40:26 17° SSW 21:41:58 13° SSE
Cosmos 1300 Rocket 3.5 21:38:23 10° N 21:42:43 74° ENE 21:46:34 13° SSE
Cosmos 1709 Rocket 4.5 21:38:03 11° SSE 21:43:56 47° E 21:49:56 10° NNE
SL-16 R/B 3.4 21:38:57 10° NNW 21:44:12 36° NE 21:49:24 10° ESE
Cosmos 2237 Rocket 2.2 21:39:34 10° NNW 21:45:17 86° ENE 21:50:16 14° SSE
Cosmos 2227 Rocket 3.1 21:47:45 12° SSE 21:52:06 31° ESE 21:57:01 10° NE
SJ 16-02 4.0 21:54:32 10° WSW 21:57:54 22° NW 22:01:18 10° N
Cosmos 1455 3.9 21:55:35 10° NNW 21:58:33 25° W 22:01:29 10° SSW
H-2A R/B 4.0 21:56:06 11° ESE 21:59:28 26° ENE 22:02:54 10° N
Cosmos 1980 3.8 21:54:18 10° NNW 21:59:58 73° WSW 22:04:42 15° SSE
EXPRESS MD2 2.7 21:58:36 10° W 22:00:52 32° SSW 22:01:34 25° SSE
GP-B 3.1 21:58:32 10° N 22:02:59 84° E 22:06:49 14° S
Landsat 5 3.5 21:59:25 10° NNE 22:03:35 90° W 22:07:52 10° SSW
Meteor 2-5 Rocket 4.2 21:59:20 14° SSE 22:04:11 49° E 22:09:43 10° NNE
Cosmos 1777 Rocket 4.2 22:01:00 10° S 22:06:08 56° ESE 22:11:18 10° NNE
ARIANE 5 R/B 3.0 22:03:45 16° SE 22:07:02 52° ENE 22:11:18 10° N
COSMOS 2455 3.0 22:02:02 10° SW 22:08:04 80° NW 22:14:10 10° NE
Cosmos 1825 3.9 22:06:40 13° ESE 22:08:06 16° E 22:10:20 10° NE
SeaSat 1 3.2 22:04:02 13° S 22:08:10 43° WSW 22:12:52 10° NW
Cosmos 1174 4.4 22:03:35 10° NW 22:08:20 54° WSW 22:11:05 18° SSE
Cosmos 2297 Rocket 2.2 22:05:07 10° SSW 22:10:44 73° ESE 22:16:24 10° NNE
Cosmos 1703 3.2 22:10:39 18° S 22:13:17 62° E 22:16:55 10° NNE
MetOp-A 4.4 22:09:42 13° S 22:14:20 60° WSW 22:19:24 10° NNW
Cosmos 1503 Rocket 4.0 22:12:28 10° SSW 22:17:47 80° ESE 22:23:04 10° NNE
NOSS 8 (A) 4.5 22:16:16 10° NW 22:19:11 56° SW 22:21:11 22° SSE
Orbus 7S? 4.5 22:24:03 10° NW 22:26:51 31° NNE 22:29:19 10° ENE
Cosmos 1461 4.3 22:26:32 17° SE 22:27:07 18° ESE 22:29:46 10° ENE
Cosmos 2219 4.1 22:23:58 18° SSE 22:27:15 32° ESE 22:32:09 10° NE
Cosmos 1818 4.1 22:22:22 10° NW 22:27:49 58° NE 22:32:53 12° ESE
CENTAUR R/B 2.7 22:22:27 10° SSW 22:27:55 50° ESE 22:34:40 10° NE
Cosmos 371 Rocket 3.8 22:23:16 10° SW 22:28:02 62° WNW 22:32:51 10° NNE
Cosmos 2263 Rocket 3.4 22:27:07 17° SE 22:29:50 24° ESE 22:34:15 10° NE
Cosmos 1745 Rocket 4.4 22:24:14 10° SSW 22:30:33 64° WNW 22:36:54 10° N
Cosmos 2151 Rocket 3.8 22:26:36 10° N 22:30:59 61° ENE 22:33:48 21° SSE
Cosmos 1892 3.4 22:31:14 22° SE 22:32:49 34° E 22:36:03 10° NNE
Terra 4.2 22:31:12 10° SW 22:34:02 16° W 22:36:54 10° NW
Okean 2 Rocket 3.3 22:30:56 10° N 22:35:25 62° ENE 22:38:18 21° SSE
Meteor 1-24 Rocket 3.7 22:32:43 15° S 22:37:32 84° E 22:43:02 10° NNE
CZ-4C R/B 2.7 22:33:46 10° WSW 22:38:27 59° NW 22:44:27 10° NE
ALOS 2 3.2 22:46:36 20° SE 22:49:26 49° ENE 22:53:41 10° N
Cosmos 405 Rocket 3.1 22:46:07 10° NNW 22:49:48 52° W 22:51:59 22° SSW
USA 234 3.2 22:44:19 10° ENE 22:50:53 71° SE 22:57:25 10° SW
H-2A R/B 4.1 22:53:11 10° ENE 22:55:23 14° E 22:57:02 12° ESE
PSLV R/B 3.8 22:51:51 10° NNE 22:55:50 83° E 22:58:16 23° SSW
BlueWalker 3 2.4 22:56:34 10° WNW 23:00:17 59° N 23:04:00 10° E
MINOTAUR 4 R/B 3.4 22:58:02 10° NNE 23:00:56 86° WNW 23:02:07 32° SSW
USA 281 3.3 22:56:14 20° SSE 23:01:03 76° WSW 23:07:41 10° NNW
SOZ 4.5 22:59:28 10° WNW 23:02:07 81° N 23:04:54 10° E
Cosmos 2074 Rocket 4.1 22:58:51 21° SSE 23:03:05 63° E 23:09:15 10° NNE
Cosmos 2181 Rocket 4.1 22:58:47 10° NNW 23:04:55 73° W 23:09:14 20° S
CZ-2C R/B 4.0 23:01:06 10° N 23:05:30 61° WNW 23:09:05 15° SSW
Aureole 1 Rocket 3.7 23:05:07 25° SSE 23:07:06 43° ESE 23:11:59 10° NE
Cosmos 990 Rocket 3.9 23:04:48 20° SSW 23:08:23 74° ESE 23:13:32 10° NNE
Cosmos 2221 Rocket 3.5 23:07:37 24° S 23:10:19 87° E 23:14:46 10° N
Cosmos 1328 4.0 23:09:17 28° SSE 23:11:03 54° E 23:14:52 10° NNE
Okean 1 Rocket 3.0 23:07:14 10° N 23:11:39 90° SW 23:14:06 26° S
Sich 1 Rocket 3.9 23:10:23 10° NNW 23:14:41 56° W 23:17:10 23° SSW
Cosmos 1680 Rocket 3.9 23:19:16 10° NNW 23:24:25 57° ENE 23:28:15 18° SE
Cosmos 1025 Rocket 3.2 23:23:54 27° SSE 23:26:03 61° E 23:30:17 10° NNE
SL-16 R/B 2.6 23:23:00 10° NW 23:28:32 52° WSW 23:31:51 23° S
Cosmos 2237 Rocket 4.1 23:24:52 10° WNW 23:28:35 18° W 23:32:05 11° SW
Cosmos 372 Rocket 4.4 23:26:38 24° SSE 23:29:23 47° ESE 23:34:22 10° NE
Cosmos 2112 Rocket 4.5 23:25:39 10° NNW 23:30:46 55° ENE 23:34:40 17° SE
Cosmos 1975 Rocket 3.9 23:31:37 24° SE 23:33:44 39° E 23:37:52 10° NNE
Cosmos 1606 4.1 23:30:37 10° N 23:33:44 27° ENE 23:35:43 17° ESE
Cosmos 1943 3.4 23:28:26 10° NNW 23:34:03 67° ENE 23:38:27 17° SE
H-2A R/B 3.3 23:32:04 23° SSW 23:34:13 40° W 23:38:10 10° NNW
Cosmos 2227 Rocket 2.8 23:30:20 10° SW 23:35:53 55° NW 23:41:29 10° NNE
Nadezhda 3 Rocket 4.0 23:33:09 10° N 23:39:25 83° W 23:43:26 23° S
Cosmos 1455 Rocket 3.1 23:35:20 10° N 23:39:49 78° E 23:42:11 27° SSE
Cosmos 2082 3.7 23:36:07 22° SSW 23:39:49 72° ESE 23:45:26 10° NNE
NOSS 3-2 (A) 3.2 23:35:54 13° SW 23:40:45 87° SE 23:47:09 10° NE
Cosmos 1825 3.0 23:40:07 20° SW 23:41:59 37° WNW 23:45:12 10° N
BREEZE-M DEB (TANK) 3.3 23:40:56 10° WSW 23:43:38 70° S 23:50:05 10° E
ARIANE 5 R/B 4.5 23:41:12 13° SW 23:43:44 20° W 23:47:01 10° NW
NOSS 3-2 (C) 3.4 23:49:29 24° SSW 23:52:36 55° SE 23:58:43 10° NE
Cosmos 2228 4.3 23:49:05 10° N 23:52:59 32° ENE 23:55:54 15° SE
